Westerly, RI

4:21 PM EDT on April 26, 2018 (GMT -0400)
Westerly State

Weather History for KWST - August, 2014

Change the Weather History Date:

Saturday, August 23, 2014

  Actual Average (KGON) Record (KGON)
Temperature  
Mean Temperature 67 °F -  
Max Temperature 77 °F 77 °F 88 °F (1976)
Min Temperature 57 °F 59 °F 46 °F (1957)
Cooling Degree Days 2    
Growing Degree Days 17 (Base 50)    
Moisture  
Dew Point 56 °F    
Average Humidity 69    
Maximum Humidity 90    
Minimum Humidity 48    
Precipitation  
Precipitation 0.00 in - - ()
Sea Level Pressure  
Sea Level Pressure 30.10 in    
Wind  
Wind Speed 5 mph (NE)    
Max Wind Speed 10 mph    
Max Gust Speed 17 mph    
Visibility 10 miles    
Events      
Averages and records for this station are not official NWS values.
T = Trace of Precipitation, MM = Missing Value Source: NWS Daily Summary

Daily Weather History Graph

Daily Weather History Graph

Search for Another Location

Airport or City:

Astronomy

Aug. 23, 2014 Rise Set
Actual Time 6:04 AM EDT 7:34 PM EDT
Civil Twilight 5:35 AM EDT 8:03 PM EDT
Nautical Twilight 5:00 AM EDT 8:38 PM EDT
Astronomical Twilight 4:23 AM EDT 9:15 PM EDT
Moon 4:17 AM EDT (8/23) 6:17 PM EDT (8/23)
Length of Visible Light 14h 28m
Length of Day
13h 30m
Waning Crescent, 3% of the Moon is Illuminated
Aug 23
Waning Crescent
Aug 25
New
Sep 2
First Quarter
Sep 8
Full
Sep 15
Last Quarter

Hourly Weather History & Observations

Time (EDT) Temp. Dew Point Humidity Pressure Visibility Wind Dir Wind Speed Gust Speed Precip Events Conditions
12:53 AM 64.0 °F 60.1 °F 87% 30.08 in 10.0 mi NNE 3.5 mph - N/A   Clear
1:53 AM 64.0 °F 61.0 °F 90% 30.07 in 10.0 mi NNE 5.8 mph - N/A   Overcast
2:53 AM 63.0 °F 60.1 °F 90% 30.07 in 10.0 mi NNE 4.6 mph - N/A   Clear
3:53 AM 63.0 °F 60.1 °F 90% 30.06 in 10.0 mi NNE 4.6 mph - N/A   Clear
5:53 AM 63.0 °F 60.1 °F 90% 30.07 in 10.0 mi NNE 5.8 mph - N/A   Clear
8:53 AM 66.9 °F 59.0 °F 76% 30.10 in 10.0 mi NNE 8.1 mph - N/A   Partly Cloudy
9:53 AM 71.1 °F 57.0 °F 61% 30.10 in 10.0 mi NE 8.1 mph - N/A   Scattered Clouds
10:53 AM 70.0 °F 57.0 °F 63% 30.11 in 10.0 mi NE 8.1 mph - N/A   Scattered Clouds
11:53 AM 73.0 °F 55.9 °F 55% 30.10 in 10.0 mi NE 6.9 mph 17.3 mph N/A   Partly Cloudy
12:53 PM 75.0 °F 55.9 °F 51% 30.09 in 10.0 mi NNE 10.4 mph 17.3 mph N/A   Mostly Cloudy
1:53 PM 75.0 °F 57.0 °F 53% 30.10 in 10.0 mi ENE 9.2 mph - N/A   Overcast
2:53 PM 73.0 °F 55.9 °F 55% 30.09 in 10.0 mi NE 6.9 mph - N/A   Overcast
3:53 PM 73.9 °F 55.9 °F 53% 30.09 in 10.0 mi NE 6.9 mph - N/A   Overcast
4:53 PM 75.0 °F 54.0 °F 48% 30.09 in 10.0 mi East 10.4 mph - N/A   Mostly Cloudy
5:53 PM 71.1 °F 55.9 °F 59% 30.10 in 10.0 mi NE 4.6 mph - N/A   Overcast
6:53 PM 71.1 °F 54.0 °F 55% 30.11 in 10.0 mi ENE 9.2 mph - N/A   Clear
7:53 PM 66.9 °F 54.0 °F 63% 30.11 in 10.0 mi NE 4.6 mph - N/A   Clear
8:53 PM 64.0 °F 54.0 °F 70% 30.12 in 10.0 mi Calm Calm - N/A   Clear
9:53 PM 61.0 °F 54.0 °F 78% 30.13 in 10.0 mi Calm Calm - N/A   Clear
10:53 PM 59.0 °F 53.1 °F 81% 30.13 in 10.0 mi Calm Calm - N/A   Clear
11:53 PM 57.0 °F 52.0 °F 83% 30.13 in 10.0 mi Calm Calm - N/A   Clear